Location: Izdebno
(52.6670°N, 16.2170°E)
Time: 04:50:13
(UTC+02:00)

A-11 Canister half - Pass Details

Date: 13 February 2023
Orbit: 1526 x 1682 km, 47.3° (Epoch: 25 March)

Event Time Altitude Azimuth Distance (km) Brightness Sun altitude
Rises 06:23:24 0° 266° (W) 4,680 - -8.5°
Exits shadow 06:25:45 - 264° (W) 3,923 10.5 -8.2°
Reaches altitude 10° 06:26:28 10° 264° (W) 3,695 10.4 -8.1°
Maximum altitude 06:35:35 63° 186° (S) 1,682 9.3 -6.7°
Drops below altitude 10° 06:44:49 10° 108° (ESE) 3,742 13.0 -5.4°
Sets 06:47:56 0° 106° (ESE) 4,743 14.7 -4.9°
